Location: Newark
(15.5700°N, 75.3700°E)
Time: 06:15:30
(UTC+00:00)

ISS - Pass Details

Date: 19 November 2019
Orbit: 411 x 421 km, 51.6° (Epoch: 13 December)

Event Time Altitude Azimuth Distance (km) Brightness Sun altitude
Exits shadow 00:11:41 12° 241° (WSW) 1,377 -1.6 -12.5°
Maximum altitude 00:11:57 12° 236° (WSW) 1,372 -1.5 -12.4°
Drops below altitude 10° 00:13:20 10° 212° (SSW) 1,490 -1.1 -12.1°
Sets 00:16:28 0° 179° (S) 2,348 0.3 -11.4°
